Location: Saratoga Springs
(43.0831°N, 73.7850°W)
Time: 15:41:39
(UTC-04:00)

Vanguard 2 Rocket - Pass Details

Date: 16 April 2024
Orbit: 556 x 3304 km, 32.9° (Epoch: 24 May)

Event Time Altitude Azimuth Distance (km) Brightness Sun altitude
Rises 19:24:30 0° 170° (S) 6,027 10.9 1.9°
Reaches altitude 10° 19:33:12 10° 142° (SE) 5,671 10.5 0.3°
Maximum altitude 19:37:53 12° 127° (SE) 5,791 10.4 -0.5°
Drops below altitude 10° 19:42:51 10° 111° (ESE) 6,120 10.4 -1.4°
Sets 19:53:28 0° 86° (E) 7,288 10.9 -3.2°
